Flag for Canada Weather past 2 weeks in Windsor, Ontario, Canada

Now
41 °F

Passing clouds.


Feels Like: 38 °F
Forecast: 38 / 57 °F
Wind: 5 mph from North

Location: Windsor Weather Station

Current Time: Oct 23, 2014 at 10:06:35 AM

Latest Report: Oct 23, 2014 at 9:00 AM


Visibility: 15 mi

Pressure: 30.25 "Hg

Humidity: 87%

Dew point: 37 °F

Location of WindsorLocation

Historic Weather in Windsor — Graph

°F

Windsor temperature yesterday

Maximum temperature yesterday: 55 °F (at 3:00 PM)
Minimum temperature yesterday: 43 °F (at 11:00 PM)
Average temperature yesterday: 48 °F

Past Weeks' High & Low Weather Summary

 TemperatureHumidityPressure
High72 °F (Oct 13, 5:00 PM)100% (Oct 13, 5:00 AM)30.33 "Hg (Oct 13, 5:00 AM)
Low32 °F (Oct 19, 8:00 AM)31% (Oct 8, 6:00 PM)29.51 "Hg (Oct 17, 3:00 PM)
Average52 °F76%29.96 "Hg
* Reported Oct 8 9:00 AM — Oct 23 9:00 AM, Windsor, Weather by CustomWeather, © 2014

Note: Actual official high and low records may vary slightly from our data, if they occured in-between our weather recording intervals... More about our weather records

Advertising

Windsor weather history for previous 24 hours

 ConditionsComfort  
Time TempWeatherWind HumidityBarometerVisibility
9:00 AM
Oct 23
41 °FPassing clouds.5 mph87%30.25 "Hg15 mi
8:00 AM37 °FPassing clouds.5 mph93%30.25 "Hg15 mi
7:00 AM37 °FClear.5 mph93%30.26 "Hg15 mi
6:00 AM39 °FClear.3 mph87%30.25 "Hg15 mi
5:00 AM39 °FClear.6 mph93%30.26 "Hg15 mi
4:00 AM39 °FClear.5 mph87%30.26 "Hg15 mi
3:00 AM39 °FClear.5 mph93%30.27 "Hg15 mi
2:00 AM39 °FClear.6 mph93%30.27 "Hg15 mi
1:00 AM41 °FClear.7 mph87%30.28 "Hg15 mi
12:00 AM41 °FClear.7 mph87%30.28 "Hg15 mi
11:00 PM
Oct 22
43 °FClear.8 mph87%30.29 "Hg15 mi
10:00 PM45 °FClear.9 mph87%30.29 "Hg15 mi
9:00 PM46 °FClear.10 mph82%30.29 "Hg15 mi
8:00 PM46 °FPassing clouds.6 mph76%30.29 "Hg15 mi
7:00 PM50 °FPassing clouds.9 mph71%30.29 "Hg15 mi
6:00 PM54 °FPassing clouds.8 mph67%30.28 "Hg15 mi
5:00 PM54 °FScattered clouds.10 mph67%30.28 "Hg15 mi
4:00 PM55 °FScattered clouds.8 mph59%30.28 "Hg15 mi
3:00 PM55 °FScattered clouds.9 mph63%30.29 "Hg15 mi
2:00 PM54 °FPassing clouds.14 mph67%30.30 "Hg15 mi
1:00 PM54 °FScattered clouds.15 mph67%30.32 "Hg15 mi
12:00 PM52 °FPassing clouds.13 mph67%30.32 "Hg15 mi
11:00 AM48 °FPartly sunny.10 mph71%30.33 "Hg15 mi
10:00 AM46 °FPartly sunny.14 mph76%30.33 "Hg15 mi
Weather by CustomWeather, © 2014

See weather overviewHow to use our weather pages